Time,TemperatureF,DewpointF,PressureIn,WindDirection,WindDirectionDegrees,WindSpeedMPH,WindSpeedGustMPH,Humidity,HourlyPrecipIn,Conditions,Clouds,dailyrainin,SoftwareType,DateUTC
2013-06-07 00:04:00,64.8,53.5,30.01,North,-999,-999.0,-999.0,67,-99.99,,,0.00,wxRedirect v1.1,2013-06-07 05:04:00,
2013-06-07 00:09:00,64.8,53.5,30.01,North,0,0.0,0.0,67,-99.99,,,0.00,wxRedirect v1.1,2013-06-07 05:09:00,
2013-06-07 00:14:00,64.6,53.4,30.01,North,0,0.0,0.0,67,-99.99,,,0.00,wxRedirect v1.1,2013-06-07 05:14:00,
2013-06-07 00:20:00,64.2,53.6,30.01,North,0,0.0,0.0,72,-99.99,,,0.00,wxRedirect v1.1,2013-06-07 05:20:00,
2013-06-07 00:25:00,64.2,53.5,30.01,North,0,0.0,0.0,68,-99.99,,,0.00,wxRedirect v1.1,2013-06-07 05:25:00,
2013-06-07 00:30:00,64.0,53.3,30.01,North,0,0.0,0.0,68,-99.99,,,0.00,wxRedirect v1.1,2013-06-07 05:30:00,
2013-06-07 00:35:00,64.0,53.7,30.01,North,0,0.0,0.0,69,-99.99,,,0.00,wxRedirect v1.1,2013-06-07 05:35:00,
2013-06-07 00:41:00,63.7,53.3,30.01,North,0,0.0,0.0,69,-99.99,,,0.00,wxRedirect v1.1,2013-06-07 05:41:00,
2013-06-07 00:47:00,63.7,53.3,30.01,North,0,0.0,0.0,69,-99.99,,,0.00,wxRedirect v1.1,2013-06-07 05:47:00,
2013-06-07 00:52:00,63.5,53.2,30.01,North,0,0.0,0.0,69,-99.99,,,0.00,wxRedirect v1.1,2013-06-07 05:52:00,
2013-06-07 00:57:00,63.3,53.0,30.01,North,0,0.0,0.0,69,-99.99,,,0.00,wxRedirect v1.1,2013-06-07 05:57:00,
2013-06-07 01:05:00,63.1,52.8,30.01,North,0,0.0,0.0,69,-99.99,,,0.00,wxRedirect v1.1,2013-06-07 06:05:00,
2013-06-07 01:10:00,63.1,52.8,30.01,North,0,0.0,0.0,69,-99.99,,,0.00,wxRedirect v1.1,2013-06-07 06:10:00,
2013-06-07 01:16:00,63.0,52.6,30.01,North,0,0.0,0.0,69,-99.99,,,0.00,wxRedirect v1.1,2013-06-07 06:16:00,
2013-06-07 01:21:00,62.8,52.4,30.01,North,0,0.0,0.0,69,-99.99,,,0.00,wxRedirect v1.1,2013-06-07 06:21:00,
2013-06-07 01:26:00,62.8,52.9,30.01,North,0,0.0,0.0,70,-99.99,,,0.00,wxRedirect v1.1,2013-06-07 06:26:00,
2013-06-07 01:31:00,62.4,52.5,30.01,North,0,0.0,0.0,70,-99.99,,,0.00,wxRedirect v1.1,2013-06-07 06:31:00,
2013-06-07 01:36:00,62.4,52.5,30.01,North,0,0.0,0.0,70,-99.99,,,0.00,wxRedirect v1.1,2013-06-07 06:36:00,
2013-06-07 01:41:00,62.2,52.7,30.01,North,0,0.0,0.0,71,-99.99,,,0.00,wxRedirect v1.1,2013-06-07 06:41:00,
2013-06-07 01:47:00,62.2,52.7,30.01,North,0,0.0,0.0,71,-99.99,,,0.00,wxRedirect v1.1,2013-06-07 06:47:00,
2013-06-07 01:52:00,61.9,52.4,30.01,North,0,0.0,0.0,71,-99.99,,,0.00,wxRedirect v1.1,2013-06-07 06:52:00,
2013-06-07 01:57:00,61.9,52.4,30.01,North,0,0.0,0.0,71,-99.99,,,0.00,wxRedirect v1.1,2013-06-07 06:57:00,
2013-06-07 02:02:00,61.7,52.3,30.02,North,0,0.0,0.0,71,-99.99,,,0.00,wxRedirect v1.1,2013-06-07 07:02:00,
2013-06-07 02:07:00,61.7,52.3,30.01,North,0,0.0,0.0,71,-99.99,,,0.00,wxRedirect v1.1,2013-06-07 07:07:00,
2013-06-07 02:12:00,61.7,52.3,30.01,North,0,0.0,0.0,71,-99.99,,,0.00,wxRedirect v1.1,2013-06-07 07:12:00,
2013-06-07 02:17:00,61.5,52.4,30.02,North,0,0.0,0.0,72,-99.99,,,0.00,wxRedirect v1.1,2013-06-07 07:17:00,
2013-06-07 02:23:00,61.5,52.4,30.02,North,0,0.0,0.0,72,-99.99,,,0.00,wxRedirect v1.1,2013-06-07 07:23:00,
2013-06-07 02:28:00,61.5,52.4,30.01,North,0,0.0,0.0,72,-99.99,,,0.00,wxRedirect v1.1,2013-06-07 07:28:00,
2013-06-07 02:34:00,61.5,52.4,30.01,North,0,0.0,0.0,72,-99.99,,,0.00,wxRedirect v1.1,2013-06-07 07:34:00,
2013-06-07 02:39:00,61.5,52.4,30.02,North,0,0.0,0.0,72,-99.99,,,0.00,wxRedirect v1.1,2013-06-07 07:39:00,
2013-06-07 02:44:00,61.3,52.3,30.02,North,0,0.0,0.0,72,-99.99,,,0.00,wxRedirect v1.1,2013-06-07 07:44:00,
2013-06-07 02:49:00,61.3,52.3,30.02,North,0,0.0,0.0,72,-99.99,,,0.00,wxRedirect v1.1,2013-06-07 07:49:00,
2013-06-07 02:54:00,61.2,52.1,30.02,North,0,0.0,0.0,72,-99.99,,,0.00,wxRedirect v1.1,2013-06-07 07:54:00,
2013-06-07 02:59:00,61.2,52.1,30.02,North,0,0.0,0.0,72,-99.99,,,0.00,wxRedirect v1.1,2013-06-07 07:59:00,
2013-06-07 03:04:00,61.0,52.0,30.01,North,0,0.0,0.0,72,-99.99,,,0.00,wxRedirect v1.1,2013-06-07 08:04:00,
2013-06-07 03:09:00,61.0,52.0,30.02,North,-999,-999.0,-999.0,72,-99.99,,,0.00,wxRedirect v1.1,2013-06-07 08:09:00,
2013-06-07 03:15:00,61.0,52.0,30.02,North,0,0.0,0.0,72,-99.99,,,0.00,wxRedirect v1.1,2013-06-07 08:15:00,
2013-06-07 03:20:00,61.0,52.0,30.02,North,0,0.0,0.0,72,-99.99,,,0.00,wxRedirect v1.1,2013-06-07 08:20:00,
2013-06-07 03:25:00,60.6,51.6,30.02,North,0,0.0,0.0,72,-99.99,,,0.00,wxRedirect v1.1,2013-06-07 08:25:00,
2013-06-07 03:31:00,60.6,51.6,30.02,North,0,0.0,0.0,72,-99.99,,,0.00,wxRedirect v1.1,2013-06-07 08:31:00,
2013-06-07 03:36:00,60.6,51.4,30.02,North,0,0.0,0.0,72,-99.99,,,0.00,wxRedirect v1.1,2013-06-07 08:36:00,
2013-06-07 03:41:00,60.4,51.8,30.01,North,0,0.0,0.0,73,-99.99,,,0.00,wxRedirect v1.1,2013-06-07 08:41:00,
2013-06-07 03:47:00,60.3,51.6,30.02,North,0,0.0,0.0,73,-99.99,,,0.00,wxRedirect v1.1,2013-06-07 08:47:00,
2013-06-07 03:52:00,60.1,51.4,30.01,North,-999,-999.0,-999.0,73,-99.99,,,0.00,wxRedirect v1.1,2013-06-07 08:52:00,
2013-06-07 03:57:00,60.1,51.4,30.01,North,0,0.0,0.0,73,-99.99,,,0.00,wxRedirect v1.1,2013-06-07 08:57:00,
2013-06-07 04:03:00,59.9,51.3,30.01,North,-999,-999.0,-999.0,73,-99.99,,,0.00,wxRedirect v1.1,2013-06-07 09:03:00,
2013-06-07 04:08:00,59.9,51.3,30.01,North,0,0.0,0.0,73,-99.99,,,0.00,wxRedirect v1.1,2013-06-07 09:08:00,
2013-06-07 04:13:00,59.7,51.1,30.01,North,0,0.0,0.0,73,-99.99,,,0.00,wxRedirect v1.1,2013-06-07 09:13:00,
2013-06-07 04:19:00,59.7,51.1,30.01,North,0,0.0,0.0,73,-99.99,,,0.00,wxRedirect v1.1,2013-06-07 09:19:00,
2013-06-07 04:24:00,59.5,50.9,30.01,North,0,0.0,0.0,73,-99.99,,,0.00,wxRedirect v1.1,2013-06-07 09:24:00,
2013-06-07 04:29:00,59.5,50.9,30.01,North,0,0.0,0.0,73,-99.99,,,0.00,wxRedirect v1.1,2013-06-07 09:29:00,
2013-06-07 04:35:00,59.5,50.9,30.01,North,0,0.0,0.0,73,-99.99,,,0.00,wxRedirect v1.1,2013-06-07 09:35:00,
2013-06-07 04:40:00,59.4,50.7,30.01,North,0,0.0,0.0,73,-99.99,,,0.00,wxRedirect v1.1,2013-06-07 09:40:00,
2013-06-07 04:45:00,59.4,51.1,30.01,North,0,0.0,0.0,74,-99.99,,,0.00,wxRedirect v1.1,2013-06-07 09:45:00,
2013-06-07 04:51:00,59.2,50.9,30.01,North,0,0.0,0.0,74,-99.99,,,0.00,wxRedirect v1.1,2013-06-07 09:51:00,
2013-06-07 04:56:00,59.0,50.7,30.01,North,0,0.0,0.0,74,-99.99,,,0.00,wxRedirect v1.1,2013-06-07 09:56:00,
2013-06-07 05:01:00,58.8,50.5,30.01,North,0,0.0,0.0,74,-99.99,,,0.00,wxRedirect v1.1,2013-06-07 10:01:00,
2013-06-07 05:07:00,58.8,50.5,30.01,North,0,0.0,0.0,74,-99.99,,,0.00,wxRedirect v1.1,2013-06-07 10:07:00,
2013-06-07 05:12:00,58.8,50.5,30.01,North,0,0.0,0.0,74,-99.99,,,0.00,wxRedirect v1.1,2013-06-07 10:12:00,
2013-06-07 05:17:00,58.8,50.5,30.01,North,0,0.0,0.0,74,-99.99,,,0.00,wxRedirect v1.1,2013-06-07 10:17:00,
2013-06-07 05:23:00,58.8,50.5,30.02,North,-999,-999.0,-999.0,74,-99.99,,,0.00,wxRedirect v1.1,2013-06-07 10:23:00,
2013-06-07 05:28:00,58.8,50.5,30.02,North,0,0.0,0.0,74,-99.99,,,0.00,wxRedirect v1.1,2013-06-07 10:28:00,
2013-06-07 05:33:00,58.8,50.5,30.02,North,0,0.0,0.0,74,-99.99,,,0.00,wxRedirect v1.1,2013-06-07 10:33:00,
2013-06-07 05:38:00,58.8,50.9,30.02,North,0,0.0,0.0,75,-99.99,,,0.00,wxRedirect v1.1,2013-06-07 10:38:00,
2013-06-07 05:43:00,58.6,50.7,30.02,North,0,0.0,0.0,75,-99.99,,,0.00,wxRedirect v1.1,2013-06-07 10:43:00,
2013-06-07 05:49:00,58.6,50.7,30.02,North,0,0.0,0.0,75,-99.99,,,0.00,wxRedirect v1.1,2013-06-07 10:49:00,
2013-06-07 05:54:00,58.6,50.7,30.02,North,0,0.0,0.0,75,-99.99,,,0.00,wxRedirect v1.1,2013-06-07 10:54:00,
2013-06-07 05:59:00,58.6,50.7,30.02,North,0,0.0,0.0,75,-99.99,,,0.00,wxRedirect v1.1,2013-06-07 10:59:00,
2013-06-07 06:05:00,58.6,50.7,30.02,North,0,0.0,0.0,75,-99.99,,,0.00,wxRedirect v1.1,2013-06-07 11:05:00,
2013-06-07 06:10:00,58.5,50.5,30.02,North,0,0.0,0.0,75,-99.99,,,0.00,wxRedirect v1.1,2013-06-07 11:10:00,
2013-06-07 06:15:00,58.5,50.5,30.02,North,0,0.0,0.0,75,-99.99,,,0.00,wxRedirect v1.1,2013-06-07 11:15:00,
2013-06-07 06:21:00,58.5,50.5,30.02,North,0,0.0,0.0,75,-99.99,,,0.00,wxRedirect v1.1,2013-06-07 11:21:00,
2013-06-07 06:26:00,58.5,50.5,30.02,North,0,0.0,0.0,75,-99.99,,,0.00,wxRedirect v1.1,2013-06-07 11:26:00,
2013-06-07 06:32:00,58.5,50.5,30.02,North,0,0.0,0.0,75,-99.99,,,0.00,wxRedirect v1.1,2013-06-07 11:32:00,
2013-06-07 06:37:00,58.5,50.5,30.02,North,0,0.0,0.0,75,-99.99,,,0.00,wxRedirect v1.1,2013-06-07 11:37:00,
2013-06-07 06:43:00,58.5,50.5,30.01,North,0,0.0,0.0,75,-99.99,,,0.00,wxRedirect v1.1,2013-06-07 11:43:00,
2013-06-07 06:48:00,58.5,50.5,30.01,North,0,0.0,0.0,75,-99.99,,,0.00,wxRedirect v1.1,2013-06-07 11:48:00,
2013-06-07 06:53:00,58.6,51.1,30.02,North,0,0.0,0.0,76,-99.99,,,0.00,wxRedirect v1.1,2013-06-07 11:53:00,
2013-06-07 06:59:00,58.8,51.3,30.02,NE,45,0.0,1.3,76,-99.99,,,0.00,wxRedirect v1.1,2013-06-07 11:59:00,
2013-06-07 07:04:00,58.8,51.3,30.02,NE,45,0.0,1.3,76,-99.99,,,0.00,wxRedirect v1.1,2013-06-07 12:04:00,
2013-06-07 07:09:00,58.8,51.3,30.02,NE,45,0.0,0.0,76,-99.99,,,0.00,wxRedirect v1.1,2013-06-07 12:09:00,
2013-06-07 07:15:00,58.8,51.3,30.02,NE,45,0.0,0.0,76,-99.99,,,0.00,wxRedirect v1.1,2013-06-07 12:15:00,
2013-06-07 07:20:00,59.0,51.4,30.02,NE,45,0.0,0.0,76,-99.99,,,0.00,wxRedirect v1.1,2013-06-07 12:20:00,
2013-06-07 07:25:00,59.2,51.6,30.02,NE,45,0.0,1.6,76,-99.99,,,0.00,wxRedirect v1.1,2013-06-07 12:25:00,
2013-06-07 07:31:00,59.5,52.0,30.02,NNE,22,0.0,1.6,76,-99.99,,,0.00,wxRedirect v1.1,2013-06-07 12:31:00,
2013-06-07 07:36:00,59.7,52.2,30.02,NNE,22,0.0,0.0,76,-99.99,,,0.00,wxRedirect v1.1,2013-06-07 12:36:00,
2013-06-07 07:41:00,59.9,52.3,30.02,NNE,22,0.0,0.0,76,-99.99,,,0.00,wxRedirect v1.1,2013-06-07 12:41:00,
2013-06-07 07:46:00,60.1,52.5,30.02,NNE,22,0.0,0.0,76,-99.99,,,0.00,wxRedirect v1.1,2013-06-07 12:46:00,
2013-06-07 07:51:00,60.4,52.9,30.02,North,-999,-999.0,-999.0,76,-99.99,,,0.00,wxRedirect v1.1,2013-06-07 12:51:00,
2013-06-07 07:56:00,60.6,53.1,30.02,ENE,67,0.0,2.5,76,-99.99,,,0.00,wxRedirect v1.1,2013-06-07 12:56:00,
2013-06-07 08:02:00,61.2,53.6,30.02,ENE,67,0.0,2.5,76,-99.99,,,0.00,wxRedirect v1.1,2013-06-07 13:02:00,
2013-06-07 08:07:00,61.5,53.9,30.02,NE,45,0.0,0.0,76,-99.99,,,0.00,wxRedirect v1.1,2013-06-07 13:07:00,
2013-06-07 08:12:00,61.7,54.1,30.02,NNE,22,0.0,0.0,76,-99.99,,,0.00,wxRedirect v1.1,2013-06-07 13:12:00,
2013-06-07 08:17:00,62.1,54.4,30.03,NNE,22,0.0,0.0,76,-99.99,,,0.00,wxRedirect v1.1,2013-06-07 13:17:00,
2013-06-07 08:23:00,62.2,54.5,30.03,NNE,22,0.0,0.0,76,-99.99,,,0.00,wxRedirect v1.1,2013-06-07 13:23:00,
2013-06-07 08:28:00,62.6,54.5,30.03,NNE,22,0.0,0.0,75,-99.99,,,0.00,wxRedirect v1.1,2013-06-07 13:28:00,
2013-06-07 08:34:00,62.8,54.7,30.03,NNE,22,0.0,0.0,75,-99.99,,,0.00,wxRedirect v1.1,2013-06-07 13:34:00,
2013-06-07 08:39:00,63.1,55.0,30.03,North,0,0.0,0.0,75,-99.99,,,0.00,wxRedirect v1.1,2013-06-07 13:39:00,
2013-06-07 08:44:00,63.5,55.4,30.03,North,0,0.0,0.0,75,-99.99,,,0.00,wxRedirect v1.1,2013-06-07 13:44:00,
2013-06-07 08:50:00,64.0,55.6,30.04,North,0,0.0,0.0,74,-99.99,,,0.00,wxRedirect v1.1,2013-06-07 13:50:00,
2013-06-07 08:55:00,64.8,56.3,30.04,North,0,0.0,0.0,74,-99.99,,,0.00,wxRedirect v1.1,2013-06-07 13:55:00,
2013-06-07 09:00:00,65.5,56.9,30.04,North,0,0.0,0.0,74,-99.99,,,0.00,wxRedirect v1.1,2013-06-07 14:00:00,
2013-06-07 09:05:00,66.2,57.3,30.04,North,0,0.0,0.0,73,-99.99,,,0.00,wxRedirect v1.1,2013-06-07 14:05:00,
2013-06-07 09:11:00,67.1,57.8,30.04,West,270,0.0,0.0,72,-99.99,,,0.00,wxRedirect v1.1,2013-06-07 14:11:00,
2013-06-07 09:17:00,67.8,57.7,30.04,North,0,0.0,0.0,70,-99.99,,,0.00,wxRedirect v1.1,2013-06-07 14:17:00,
2013-06-07 09:22:00,68.7,58.1,30.04,North,-999,-999.0,-999.0,69,-99.99,,,0.00,wxRedirect v1.1,2013-06-07 14:22:00,
2013-06-07 09:28:00,69.6,58.5,30.04,North,0,0.0,0.0,68,-99.99,,,0.00,wxRedirect v1.1,2013-06-07 14:28:00,
2013-06-07 09:33:00,70.3,58.8,30.04,North,0,0.0,0.0,67,-99.99,,,0.00,wxRedirect v1.1,2013-06-07 14:33:00,
2013-06-07 09:38:00,71.2,58.8,30.04,NNE,22,0.0,2.9,65,-99.99,,,0.00,wxRedirect v1.1,2013-06-07 14:38:00,
2013-06-07 09:43:00,72.0,59.1,30.04,ENE,67,0.0,2.9,64,-99.99,,,0.00,wxRedirect v1.1,2013-06-07 14:43:00,
2013-06-07 09:49:00,72.7,59.3,30.04,ENE,67,0.0,0.0,63,-99.99,,,0.00,wxRedirect v1.1,2013-06-07 14:49:00,
2013-06-07 09:54:00,73.2,59.4,30.04,ENE,67,0.0,0.0,62,-99.99,,,0.00,wxRedirect v1.1,2013-06-07 14:54:00,
2013-06-07 09:59:00,73.9,59.2,30.04,North,0,0.0,3.1,60,-99.99,,,0.00,wxRedirect v1.1,2013-06-07 14:59:00,
2013-06-07 10:05:00,74.7,59.9,30.04,NE,45,0.0,3.1,60,-99.99,,,0.00,wxRedirect v1.1,2013-06-07 15:05:00,
2013-06-07 10:10:00,75.2,59.9,30.04,NE,45,0.0,0.0,59,0.00,,,0.00,wxRedirect v1.1,2013-06-07 15:10:00,
2013-06-07 10:16:00,75.7,59.4,30.04,NNE,22,0.7,2.7,57,-99.99,,,0.00,wxRedirect v1.1,2013-06-07 15:16:00,
2013-06-07 10:21:00,75.9,59.6,30.04,ESE,112,0.0,2.7,57,-99.99,,,0.00,wxRedirect v1.1,2013-06-07 15:21:00,
2013-06-07 10:26:00,76.1,59.2,30.03,NE,45,0.0,0.7,56,-99.99,,,0.00,wxRedirect v1.1,2013-06-07 15:26:00,
2013-06-07 10:32:00,76.6,59.7,30.03,NE,45,1.6,3.1,56,-99.99,,,0.00,wxRedirect v1.1,2013-06-07 15:32:00,
2013-06-07 10:37:00,76.8,59.4,30.03,ENE,67,0.0,3.1,55,-99.99,,,0.00,wxRedirect v1.1,2013-06-07 15:37:00,
2013-06-07 10:42:00,76.8,59.4,30.03,NE,45,0.0,1.1,55,-99.99,,,0.00,wxRedirect v1.1,2013-06-07 15:42:00,
2013-06-07 10:47:00,77.2,59.7,30.03,East,90,0.0,5.1,55,-99.99,,,0.00,wxRedirect v1.1,2013-06-07 15:47:00,
2013-06-07 10:53:00,77.5,59.5,30.03,North,-999,-999.0,-999.0,54,-99.99,,,0.00,wxRedirect v1.1,2013-06-07 15:53:00,
2013-06-07 10:58:00,77.9,59.4,30.03,ENE,67,0.0,4.3,53,-99.99,,,0.00,wxRedirect v1.1,2013-06-07 15:58:00,
2013-06-07 11:04:00,78.1,59.0,30.03,NE,45,0.0,4.3,52,-99.99,,,0.00,wxRedirect v1.1,2013-06-07 16:04:00,
2013-06-07 11:09:00,78.6,59.5,30.03,ENE,67,0.0,0.0,52,-99.99,,,0.00,wxRedirect v1.1,2013-06-07 16:09:00,
2013-06-07 11:14:00,78.6,59.5,30.03,NE,45,0.0,2.5,52,-99.99,,,0.00,wxRedirect v1.1,2013-06-07 16:14:00,
2013-06-07 11:19:00,79.0,61.9,30.03,ENE,67,0.0,3.6,56,-99.99,,,0.00,wxRedirect v1.1,2013-06-07 16:19:00,
2013-06-07 11:24:00,79.3,59.1,30.03,ESE,112,0.0,3.6,50,-99.99,,,0.00,wxRedirect v1.1,2013-06-07 16:24:00,
2013-06-07 11:29:00,79.3,60.2,30.03,ESE,112,0.0,3.6,52,-99.99,,,0.00,wxRedirect v1.1,2013-06-07 16:29:00,
2013-06-07 11:35:00,79.2,62.1,30.02,North,-999,-999.0,-999.0,56,-99.99,,,0.00,wxRedirect v1.1,2013-06-07 16:35:00,
2013-06-07 11:40:00,79.3,60.2,30.03,NNE,22,0.0,5.4,52,-99.99,,,0.00,wxRedirect v1.1,2013-06-07 16:40:00,
2013-06-07 11:46:00,79.5,59.8,30.02,NNE,22,0.0,5.4,51,-99.99,,,0.00,wxRedirect v1.1,2013-06-07 16:46:00,
2013-06-07 11:51:00,79.6,59.8,30.02,NNE,22,0.0,0.0,51,-99.99,,,0.00,wxRedirect v1.1,2013-06-07 16:51:00,
2013-06-07 11:56:00,79.9,60.7,30.02,East,90,0.0,1.6,52,-99.99,,,0.00,wxRedirect v1.1,2013-06-07 16:56:00,
2013-06-07 12:02:00,80.1,59.8,30.02,NNE,22,0.0,4.0,50,-99.99,,,0.00,wxRedirect v1.1,2013-06-07 17:02:00,
2013-06-07 12:07:00,80.2,59.9,30.02,East,90,0.0,4.0,50,-99.99,,,0.00,wxRedirect v1.1,2013-06-07 17:07:00,
2013-06-07 12:12:00,79.9,59.0,30.02,ENE,67,0.0,2.7,49,-99.99,,,0.00,wxRedirect v1.1,2013-06-07 17:12:00,
2013-06-07 12:18:00,79.7,60.0,30.01,SSW,202,0.0,2.0,51,-99.99,,,0.00,wxRedirect v1.1,2013-06-07 17:18:00,
2013-06-07 12:23:00,80.1,60.8,30.01,SSW,202,0.0,0.0,52,-99.99,,,0.00,wxRedirect v1.1,2013-06-07 17:23:00,
2013-06-07 12:28:00,80.4,60.1,30.01,North,-999,-999.0,-999.0,50,-99.99,,,0.00,wxRedirect v1.1,2013-06-07 17:28:00,
2013-06-07 12:34:00,80.8,60.4,30.01,ESE,112,0.0,3.8,50,-99.99,,,0.00,wxRedirect v1.1,2013-06-07 17:34:00,
2013-06-07 12:39:00,80.6,59.0,30.01,East,90,2.0,4.7,48,-99.99,,,0.00,wxRedirect v1.1,2013-06-07 17:39:00,
2013-06-07 12:44:00,80.8,59.8,30.01,East,90,0.0,5.1,49,-99.99,,,0.00,wxRedirect v1.1,2013-06-07 17:44:00,
2013-06-07 12:50:00,80.8,59.8,30.01,NE,45,0.0,5.1,49,-99.99,,,0.00,wxRedirect v1.1,2013-06-07 17:50:00,
2013-06-07 12:55:00,80.8,59.8,30.00,NNE,22,0.0,2.2,49,-99.99,,,0.00,wxRedirect v1.1,2013-06-07 17:55:00,
2013-06-07 13:00:00,81.1,60.1,30.00,ENE,67,0.0,2.0,49,-99.99,,,0.00,wxRedirect v1.1,2013-06-07 18:00:00,
2013-06-07 13:05:00,81.1,59.5,30.00,East,90,0.0,1.3,48,-99.99,,,0.00,wxRedirect v1.1,2013-06-07 18:05:00,
2013-06-07 13:11:00,81.1,59.5,30.00,NNE,22,2.7,5.1,48,-99.99,,,0.00,wxRedirect v1.1,2013-06-07 18:11:00,
2013-06-07 13:16:00,81.3,60.3,30.00,NE,45,0.0,5.1,49,-99.99,,,0.00,wxRedirect v1.1,2013-06-07 18:16:00,
2013-06-07 13:22:00,81.5,59.2,30.00,East,90,0.0,0.0,47,-99.99,,,0.00,wxRedirect v1.1,2013-06-07 18:22:00,
2013-06-07 13:27:00,81.5,59.2,30.00,NNE,22,2.9,2.9,47,-99.99,,,0.00,wxRedirect v1.1,2013-06-07 18:27:00,
2013-06-07 13:32:00,81.7,59.4,30.00,North,0,0.0,4.9,47,-99.99,,,0.00,wxRedirect v1.1,2013-06-07 18:32:00,
2013-06-07 13:38:00,81.7,59.4,29.99,East,90,0.0,4.0,47,-99.99,,,0.00,wxRedirect v1.1,2013-06-07 18:38:00,
2013-06-07 13:43:00,81.9,58.9,29.99,ENE,67,0.0,1.3,46,-99.99,,,0.00,wxRedirect v1.1,2013-06-07 18:43:00,
2013-06-07 13:49:00,81.9,59.1,29.99,North,-999,-999.0,-999.0,46,-99.99,,,0.00,wxRedirect v1.1,2013-06-07 18:49:00,
2013-06-07 13:54:00,82.0,59.1,29.99,East,90,0.0,2.0,46,-99.99,,,0.00,wxRedirect v1.1,2013-06-07 18:54:00,
2013-06-07 14:00:00,82.2,59.3,29.99,North,-999,-999.0,-999.0,46,-99.99,,,0.00,wxRedirect v1.1,2013-06-07 19:00:00,
2013-06-07 14:05:00,82.4,59.4,29.99,South,180,0.0,2.5,46,-99.99,,,0.00,wxRedirect v1.1,2013-06-07 19:05:00,
2013-06-07 14:10:00,82.2,59.3,29.99,SSW,202,0.0,2.5,46,-99.99,,,0.00,wxRedirect v1.1,2013-06-07 19:10:00,
2013-06-07 14:16:00,82.2,59.3,29.99,ENE,67,0.0,0.4,46,-99.99,,,0.00,wxRedirect v1.1,2013-06-07 19:16:00,
2013-06-07 14:21:00,82.2,58.7,29.99,ENE,67,0.0,1.8,45,-99.99,,,0.00,wxRedirect v1.1,2013-06-07 19:21:00,
2013-06-07 14:27:00,81.7,58.8,29.99,NE,45,0.0,1.8,46,-99.99,,,0.00,wxRedirect v1.1,2013-06-07 19:27:00,
2013-06-07 14:32:00,81.5,58.6,29.99,NE,45,0.0,4.3,46,-99.99,,,0.00,wxRedirect v1.1,2013-06-07 19:32:00,
2013-06-07 14:37:00,81.5,58.6,29.99,NE,45,0.0,4.3,46,-99.99,,,0.00,wxRedirect v1.1,2013-06-07 19:37:00,
2013-06-07 14:42:00,81.7,58.8,29.99,NNE,22,0.0,7.2,46,-99.99,,,0.00,wxRedirect v1.1,2013-06-07 19:42:00,
2013-06-07 14:48:00,81.7,58.8,29.99,NNE,22,0.0,7.2,46,-99.99,,,0.00,wxRedirect v1.1,2013-06-07 19:48:00,
2013-06-07 14:53:00,81.9,59.6,29.98,ENE,67,0.0,1.3,47,-99.99,,,0.00,wxRedirect v1.1,2013-06-07 19:53:00,
2013-06-07 14:58:00,82.0,59.1,29.98,ENE,67,0.0,1.3,46,-99.99,,,0.00,wxRedirect v1.1,2013-06-07 19:58:00,
2013-06-07 15:03:00,82.2,59.3,29.98,ENE,67,0.0,0.0,46,-99.99,,,0.00,wxRedirect v1.1,2013-06-07 20:03:00,
2013-06-07 15:09:00,82.6,59.6,29.98,SSW,202,0.0,0.0,46,-99.99,,,0.00,wxRedirect v1.1,2013-06-07 20:09:00,
2013-06-07 15:14:00,82.6,59.6,29.98,WSW,247,0.0,2.2,46,-99.99,,,0.00,wxRedirect v1.1,2013-06-07 20:14:00,
2013-06-07 15:20:00,82.8,59.8,29.98,SSW,202,0.0,2.7,46,-99.99,,,0.00,wxRedirect v1.1,2013-06-07 20:20:00,
2013-06-07 15:25:00,82.8,59.8,29.98,South,180,2.9,4.3,46,-99.99,,,0.00,wxRedirect v1.1,2013-06-07 20:25:00,
2013-06-07 15:31:00,82.8,59.8,29.98,WSW,247,0.0,2.9,46,-99.99,,,0.00,wxRedirect v1.1,2013-06-07 20:31:00,
2013-06-07 15:36:00,82.9,59.3,29.98,WSW,247,0.0,0.0,45,-99.99,,,0.00,wxRedirect v1.1,2013-06-07 20:36:00,
2013-06-07 15:41:00,82.8,59.8,29.97,WSW,247,0.0,2.2,46,-99.99,,,0.00,wxRedirect v1.1,2013-06-07 20:41:00,
2013-06-07 15:46:00,82.9,59.3,29.97,North,-999,-999.0,-999.0,45,-99.99,,,0.00,wxRedirect v1.1,2013-06-07 20:46:00,
2013-06-07 15:52:00,83.1,60.1,29.97,North,-999,-999.0,-999.0,46,-99.99,,,0.00,wxRedirect v1.1,2013-06-07 20:52:00,
2013-06-07 15:57:00,83.5,59.8,29.97,East,90,0.0,0.7,45,-99.99,,,0.00,wxRedirect v1.1,2013-06-07 20:57:00,
2013-06-07 16:03:00,83.1,59.5,29.97,NE,45,1.6,3.8,45,-99.99,,,0.00,wxRedirect v1.1,2013-06-07 21:03:00,
2013-06-07 16:08:00,82.9,59.3,29.97,North,-999,-999.0,-999.0,45,-99.99,,,0.00,wxRedirect v1.1,2013-06-07 21:08:00,
2013-06-07 16:13:00,82.8,59.2,29.96,ESE,112,3.4,3.4,45,-99.99,,,0.00,wxRedirect v1.1,2013-06-07 21:13:00,
2013-06-07 16:18:00,82.6,59.0,29.96,SSE,157,0.0,3.4,45,-99.99,,,0.00,wxRedirect v1.1,2013-06-07 21:18:00,
2013-06-07 16:25:00,82.0,58.5,29.96,ESE,112,0.0,2.7,45,-99.99,,,0.00,wxRedirect v1.1,2013-06-07 21:25:00,
2013-06-07 16:30:00,81.5,58.2,29.96,ESE,112,0.0,2.2,45,-99.99,,,0.00,wxRedirect v1.1,2013-06-07 21:30:00,
2013-06-07 16:35:00,81.1,57.7,29.96,ENE,67,0.0,5.4,45,-99.99,,,0.00,wxRedirect v1.1,2013-06-07 21:35:00,
2013-06-07 16:41:00,80.6,57.4,29.95,ENE,67,0.0,0.0,46,-99.99,,,0.00,wxRedirect v1.1,2013-06-07 21:41:00,
2013-06-07 16:47:00,80.6,57.8,29.95,East,90,0.0,2.0,46,-99.99,,,0.00,wxRedirect v1.1,2013-06-07 21:47:00,
2013-06-07 16:52:00,80.6,57.8,29.95,SSE,157,0.0,2.0,46,-99.99,,,0.00,wxRedirect v1.1,2013-06-07 21:52:00,
2013-06-07 16:57:00,80.6,57.8,29.95,ESE,112,0.0,3.8,46,-99.99,,,0.00,wxRedirect v1.1,2013-06-07 21:57:00,
2013-06-07 17:03:00,80.6,57.8,29.94,North,-999,-999.0,-999.0,46,-99.99,,,0.00,wxRedirect v1.1,2013-06-07 22:03:00,
2013-06-07 17:09:00,80.4,57.7,29.94,East,90,0.0,0.0,46,-99.99,,,0.00,wxRedirect v1.1,2013-06-07 22:09:00,
2013-06-07 17:14:00,80.4,57.7,29.94,East,90,0.0,0.0,46,-99.99,,,0.00,wxRedirect v1.1,2013-06-07 22:14:00,
2013-06-07 17:19:00,80.4,58.3,29.94,ESE,112,1.3,1.3,47,-99.99,,,0.00,wxRedirect v1.1,2013-06-07 22:19:00,
2013-06-07 17:24:00,80.2,57.5,29.92,ESE,112,0.0,1.3,46,-99.99,,,0.00,wxRedirect v1.1,2013-06-07 22:24:00,
2013-06-07 17:30:00,80.2,58.1,29.93,ESE,112,0.0,0.0,47,-99.99,,,0.00,wxRedirect v1.1,2013-06-07 22:30:00,
2013-06-07 17:36:00,80.4,58.3,29.93,ENE,67,0.0,1.8,47,-99.99,,,0.00,wxRedirect v1.1,2013-06-07 22:36:00,
2013-06-07 17:41:00,80.1,57.3,29.93,SSE,157,0.0,1.8,46,-99.99,,,0.00,wxRedirect v1.1,2013-06-07 22:41:00,
2013-06-07 17:47:00,79.7,57.6,29.93,ESE,112,0.0,0.9,47,-99.99,,,0.00,wxRedirect v1.1,2013-06-07 22:47:00,
2013-06-07 17:52:00,79.5,57.5,29.92,ESE,112,0.0,0.0,47,-99.99,,,0.00,wxRedirect v1.1,2013-06-07 22:52:00,
2013-06-07 17:57:00,79.5,57.5,29.92,ESE,112,0.0,0.0,47,-99.99,,,0.00,wxRedirect v1.1,2013-06-07 22:57:00,
2013-06-07 18:02:00,79.5,58.1,29.92,East,90,3.6,3.6,48,-99.99,,,0.00,wxRedirect v1.1,2013-06-07 23:02:00,
2013-06-07 18:07:00,79.5,57.5,29.92,East,90,0.0,3.6,47,-99.99,,,0.00,wxRedirect v1.1,2013-06-07 23:07:00,
2013-06-07 18:13:00,79.5,58.1,29.92,North,-999,-999.0,-999.0,48,-99.99,,,0.00,wxRedirect v1.1,2013-06-07 23:13:00,
2013-06-07 18:18:00,79.5,57.5,29.91,East,90,0.0,1.6,47,-99.99,,,0.00,wxRedirect v1.1,2013-06-07 23:18:00,
2013-06-07 18:24:00,79.3,57.9,29.92,East,90,0.0,0.4,48,-99.99,,,0.00,wxRedirect v1.1,2013-06-07 23:24:00,
2013-06-07 18:29:00,79.3,57.9,29.92,South,180,3.4,3.4,48,-99.99,,,0.00,wxRedirect v1.1,2013-06-07 23:29:00,
2013-06-07 18:36:00,79.3,57.9,29.92,East,90,0.0,3.4,48,-99.99,,,0.00,wxRedirect v1.1,2013-06-07 23:36:00,
2013-06-07 18:41:00,79.3,57.9,29.92,North,-999,-999.0,-999.0,48,-99.99,,,0.00,wxRedirect v1.1,2013-06-07 23:41:00,
2013-06-07 18:46:00,79.3,57.9,29.92,SSE,157,6.7,6.7,48,-99.99,,,0.00,wxRedirect v1.1,2013-06-07 23:46:00,
2013-06-07 18:52:00,79.2,57.7,29.92,SSW,202,0.0,6.7,48,-99.99,,,0.00,wxRedirect v1.1,2013-06-07 23:52:00,
2013-06-07 18:58:00,84.0,62.9,29.92,North,-999,-999.0,-999.0,49,-99.99,,,0.00,wxRedirect v1.1,2013-06-07 23:58:00,
2013-06-07 19:03:00,79.3,57.9,29.92,SW,225,3.1,4.7,48,-99.99,,,0.00,wxRedirect v1.1,2013-06-08 00:03:00,
2013-06-07 19:08:00,79.3,57.9,29.92,North,-999,-999.0,-999.0,48,-99.99,,,0.00,wxRedirect v1.1,2013-06-08 00:08:00,
2013-06-07 19:14:00,79.2,57.7,29.91,North,-999,-999.0,-999.0,48,-99.99,,,0.00,wxRedirect v1.1,2013-06-08 00:14:00,
2013-06-07 19:19:00,79.0,57.6,29.91,North,-999,-999.0,-999.0,48,-99.99,,,0.00,wxRedirect v1.1,2013-06-08 00:19:00,
2013-06-07 19:24:00,78.8,57.4,29.91,ENE,67,0.0,0.0,48,-99.99,,,0.00,wxRedirect v1.1,2013-06-08 00:24:00,
2013-06-07 19:29:00,78.6,57.3,29.91,East,90,0.0,0.0,48,-99.99,,,0.00,wxRedirect v1.1,2013-06-08 00:29:00,
2013-06-07 19:34:00,78.6,57.3,29.91,SSE,157,0.0,2.7,52,-99.99,,,0.00,wxRedirect v1.1,2013-06-08 00:34:00,
2013-06-07 19:40:00,78.6,57.9,29.91,South,180,0.0,2.7,49,-99.99,,,0.00,wxRedirect v1.1,2013-06-08 00:40:00,
2013-06-07 19:46:00,78.4,57.7,29.91,North,-999,-999.0,-999.0,53,-99.99,,,0.00,wxRedirect v1.1,2013-06-08 00:46:00,
2013-06-07 19:51:00,78.4,57.7,29.91,SSE,157,0.0,3.1,49,-99.99,,,0.00,wxRedirect v1.1,2013-06-08 00:51:00,
2013-06-07 19:56:00,78.1,57.4,29.91,SSE,157,0.0,5.4,49,-99.99,,,0.00,wxRedirect v1.1,2013-06-08 00:56:00,
2013-06-07 20:01:00,78.1,57.4,29.91,SSE,157,0.0,5.4,49,-99.99,,,0.00,wxRedirect v1.1,2013-06-08 01:01:00,
2013-06-07 20:07:00,77.9,57.2,29.91,SSE,157,0.0,2.0,53,-99.99,,,0.00,wxRedirect v1.1,2013-06-08 01:07:00,
2013-06-07 20:13:00,77.7,57.1,29.91,ESE,112,0.0,0.0,49,-99.99,,,0.00,wxRedirect v1.1,2013-06-08 01:13:00,
2013-06-07 20:19:00,77.5,57.5,29.91,East,90,0.0,0.0,50,-99.99,,,0.00,wxRedirect v1.1,2013-06-08 01:19:00,
2013-06-07 20:24:00,77.2,57.2,29.91,SSE,157,0.0,2.0,50,-99.99,,,0.00,wxRedirect v1.1,2013-06-08 01:24:00,
2013-06-07 20:29:00,76.8,57.4,29.91,SE,135,0.0,2.7,51,-99.99,,,0.00,wxRedirect v1.1,2013-06-08 01:29:00,
2013-06-07 20:34:00,76.6,57.2,29.92,SSE,157,0.0,2.7,55,-99.99,,,0.00,wxRedirect v1.1,2013-06-08 01:34:00,
2013-06-07 20:40:00,76.3,56.9,29.92,South,180,3.6,3.6,51,-99.99,,,0.00,wxRedirect v1.1,2013-06-08 01:40:00,
2013-06-07 20:45:00,75.9,57.1,29.91,South,180,0.0,3.6,52,-99.99,,,0.00,wxRedirect v1.1,2013-06-08 01:45:00,
2013-06-07 20:50:00,75.7,56.4,29.91,SSE,157,0.0,0.0,51,-99.99,,,0.00,wxRedirect v1.1,2013-06-08 01:50:00,
2013-06-07 20:55:00,75.7,56.9,29.91,ESE,112,0.0,0.0,52,-99.99,,,0.00,wxRedirect v1.1,2013-06-08 01:55:00,
2013-06-07 21:01:00,75.4,56.6,29.92,SSE,157,0.0,4.0,52,-99.99,,,0.00,wxRedirect v1.1,2013-06-08 02:01:00,
2013-06-07 21:07:00,75.2,56.9,29.92,North,-999,-999.0,-999.0,53,-99.99,,,0.00,wxRedirect v1.1,2013-06-08 02:07:00,
2013-06-07 21:12:00,75.0,56.7,29.92,SSE,157,0.0,2.0,53,-99.99,,,0.00,wxRedirect v1.1,2013-06-08 02:12:00,